Weather History for KAVK - January, 2014

Change the Weather History Date:

Saturday, January 25, 2014

  Actual Average Record
Temperature  
Mean Temperature 47 °F -  
Max Temperature 62 °F 51 °F 80 °F (1950)
Min Temperature 32 °F 27 °F 5 °F (1957)
Degree Days  
Heating Degree Days 18    
Moisture  
Dew Point 26 °F    
Average Humidity 45    
Maximum Humidity 70    
Minimum Humidity 27    
Precipitation  
Precipitation 0.00 in - - ()
Sea Level Pressure  
Sea Level Pressure 30.03 in    
Wind  
Wind Speed 11 mph (WNW)    
Max Wind Speed 17 mph    
Max Gust Speed 26 mph    
Visibility 10 miles    
Events      
Averages and records for this station are not official NWS values.
T = Trace of Precipitation, MM = Missing Value Source: NWS Daily Summary

Daily Weather History Graph

Daily Weather History Graph

Search for Another Location

Airport or City:

Trip Planner

Search our weather history database for the weather conditions in past years. The results will help you decide how hot, cold, wet, or windy it might be!

Date:

Astronomy

Jan. 25, 2014 Rise Set
Actual Time 7:41 AM CST 5:52 PM CST
Civil Twilight 7:14 AM CST 6:20 PM CST
Nautical Twilight 6:42 AM CST 6:51 PM CST
Astronomical Twilight 6:12 AM CST 7:22 PM CST
Moon 2:16 AM CST (1/25) 12:54 PM CST (1/25)
Length of Visible Light 11h 06m
Length of Day
10h 11m
Waning Crescent, 34% of the Moon is Illuminated
Jan 25
Waning Crescent
Jan 30
New
Feb 6
First Quarter
Feb 14
Full
Feb 22
Last Quarter

Hourly Weather History & Observations

Time (CST) Temp. Windchill Dew Point Humidity Pressure Visibility Wind Dir Wind Speed Gust Speed Precip Events Conditions
12:10 AM 41.0 °F 33.9 °F 15.8 °F 36% 30.02 in 10.0 mi West 12.7 mph 18.4 mph N/A   Mostly Cloudy
12:30 AM 41.0 °F 34.3 °F 15.8 °F 36% 30.02 in 10.0 mi West 11.5 mph - N/A   Scattered Clouds
12:50 AM 39.2 °F 31.2 °F 15.8 °F 39% 30.01 in 10.0 mi West 13.8 mph 18.4 mph N/A   Partly Cloudy
1:10 AM 39.2 °F 30.5 °F 15.8 °F 39% 30.01 in 10.0 mi West 16.1 mph 20.7 mph N/A   Partly Cloudy
1:30 AM 39.2 °F 31.2 °F 15.8 °F 39% 30.01 in 10.0 mi WNW 13.8 mph 18.4 mph N/A   Partly Cloudy
1:50 AM 39.2 °F 30.5 °F 15.8 °F 39% 30.01 in 10.0 mi WNW 16.1 mph 19.6 mph N/A   Scattered Clouds
2:10 AM 39.2 °F 31.6 °F 17.6 °F 42% 30.02 in 10.0 mi WNW 12.7 mph - N/A   Partly Cloudy
2:30 AM 39.2 °F 30.8 °F 17.6 °F 42% 30.02 in 10.0 mi West 15.0 mph - N/A   Mostly Cloudy
2:50 AM 39.2 °F 31.2 °F 17.6 °F 42% 30.03 in 10.0 mi WNW 13.8 mph - N/A   Overcast
3:10 AM 41.0 °F 34.3 °F 19.4 °F 42% 30.03 in 10.0 mi WNW 11.5 mph - N/A   Overcast
3:30 AM 42.8 °F 37.5 °F 21.2 °F 42% 30.04 in 10.0 mi WNW 9.2 mph - N/A   Mostly Cloudy
3:50 AM 39.2 °F 33.0 °F 19.4 °F 45% 30.05 in 10.0 mi WNW 9.2 mph - N/A   Mostly Cloudy
4:10 AM 44.6 °F 40.2 °F 23.0 °F 43% 30.05 in 10.0 mi WNW 8.1 mph - N/A   Mostly Cloudy
4:30 AM 37.4 °F 32.1 °F 19.4 °F 48% 30.05 in 10.0 mi NW 6.9 mph - N/A   Mostly Cloudy
4:50 AM 44.6 °F 39.2 °F 23.0 °F 43% 30.05 in 10.0 mi NW 10.4 mph 17.3 mph N/A   Mostly Cloudy
5:10 AM 41.0 °F 35.2 °F 23.0 °F 49% 30.05 in 10.0 mi WNW 9.2 mph - N/A   Mostly Cloudy
5:30 AM 41.0 °F 34.3 °F 23.0 °F 49% 30.06 in 10.0 mi WNW 11.5 mph - N/A   Mostly Cloudy
5:50 AM 41.0 °F 34.7 °F 24.8 °F 53% 30.06 in 10.0 mi NW 10.4 mph - N/A   Mostly Cloudy
6:10 AM 41.0 °F 35.2 °F 24.8 °F 53% 30.07 in 10.0 mi WNW 9.2 mph - N/A   Mostly Cloudy
6:30 AM 39.2 °F 33.6 °F 23.0 °F 52% 30.07 in 10.0 mi NW 8.1 mph - N/A   Mostly Cloudy
6:50 AM 37.4 °F 33.8 °F 23.0 °F 56% 30.07 in 10.0 mi West 4.6 mph - N/A   Mostly Cloudy
7:10 AM 37.4 °F 32.1 °F 23.0 °F 56% 30.08 in 10.0 mi WNW 6.9 mph - N/A   Mostly Cloudy
7:30 AM 35.6 °F 29.2 °F 23.0 °F 60% 30.09 in 10.0 mi West 8.1 mph - N/A   Mostly Cloudy
7:50 AM 32.0 °F 24.8 °F 21.2 °F 64% 30.09 in 10.0 mi West 8.1 mph - N/A   Clear
8:10 AM 35.6 °F 28.6 °F 23.0 °F 60% 30.09 in 10.0 mi West 9.2 mph - N/A   Clear
8:30 AM 37.4 °F 31.4 °F 23.0 °F 56% 30.09 in 10.0 mi West 8.1 mph - N/A   Clear
8:50 AM 41.0 °F 36.4 °F 24.8 °F 53% 30.09 in 10.0 mi West 6.9 mph - N/A   Clear
9:10 AM 44.6 °F 38.8 °F 24.8 °F 46% 30.09 in 10.0 mi West 11.5 mph - N/A   Clear
9:30 AM 48.2 °F - 24.8 °F 40% 30.10 in 10.0 mi West 11.5 mph - N/A   Clear
9:50 AM 50.0 °F - 26.6 °F 40% 30.10 in 10.0 mi WNW 10.4 mph - N/A   Clear
10:10 AM 53.6 °F - 26.6 °F 35% 30.11 in 10.0 mi WNW 9.2 mph - N/A   Clear
10:30 AM 57.2 °F - 26.6 °F 31% 30.11 in 10.0 mi NNW 16.1 mph 20.7 mph N/A   Clear
10:50 AM 57.2 °F - 26.6 °F 31% 30.11 in 10.0 mi NNW 13.8 mph - N/A   Clear
11:10 AM 59.0 °F - 26.6 °F 29% 30.11 in 10.0 mi North 16.1 mph 21.9 mph N/A   Clear
11:30 AM 59.0 °F - 26.6 °F 29% 30.11 in 10.0 mi NNW 17.3 mph - N/A   Clear
11:50 AM 60.8 °F - 28.4 °F 29% 30.11 in 10.0 mi North 17.3 mph 23.0 mph N/A   Clear
12:10 PM 62.6 °F - 28.4 °F 27% 30.10 in 10.0 mi North 12.7 mph 19.6 mph N/A   Clear
12:30 PM 62.6 °F - 30.2 °F 30% 30.08 in 10.0 mi North 15.0 mph 18.4 mph N/A   Clear
12:50 PM 62.6 °F - 32.0 °F 32% 30.08 in 10.0 mi North 13.8 mph 21.9 mph N/A   Clear
1:10 PM 62.6 °F - 32.0 °F 32% 30.07 in 10.0 mi NNE 16.1 mph 21.9 mph N/A   Clear
1:30 PM 62.6 °F - 32.0 °F 32% 30.06 in 10.0 mi North 15.0 mph 26.5 mph N/A   Clear
1:50 PM 62.6 °F - 32.0 °F 32% 30.05 in 10.0 mi NNE 13.8 mph 20.7 mph N/A   Clear
2:10 PM 62.6 °F - 32.0 °F 32% 30.05 in 10.0 mi North 6.9 mph - N/A   Clear
2:30 PM 62.6 °F - 32.0 °F 32% 30.04 in 10.0 mi North 9.2 mph - N/A   Clear
2:50 PM 62.6 °F - 32.0 °F 32% 30.03 in 10.0 mi North 4.6 mph - N/A   Clear
3:10 PM 62.6 °F - 32.0 °F 32% 30.03 in 10.0 mi North 5.8 mph - N/A   Clear
3:30 PM 62.6 °F - 32.0 °F 32% 30.03 in 10.0 mi North 8.1 mph - N/A   Clear
3:50 PM 62.6 °F - 32.0 °F 32% 30.02 in 10.0 mi NE 3.5 mph - N/A   Clear
4:10 PM 62.6 °F - 32.0 °F 32% 30.02 in 10.0 mi North 5.8 mph - N/A   Clear
4:30 PM 62.6 °F - 32.0 °F 32% 30.02 in 10.0 mi North 5.8 mph - N/A   Clear
4:50 PM 60.8 °F - 32.0 °F 34% 30.01 in 10.0 mi North 3.5 mph - N/A   Clear
5:10 PM 59.0 °F - 32.0 °F 36% 30.00 in 10.0 mi Calm Calm - N/A   Clear
5:30 PM 57.2 °F - 32.0 °F 38% 30.00 in 10.0 mi Calm Calm - N/A   Clear
5:50 PM 57.2 °F - 32.0 °F 38% 30.00 in 10.0 mi SSE 3.5 mph - N/A   Partly Cloudy
6:10 PM 55.4 °F - 32.0 °F 41% 30.00 in 10.0 mi SE 3.5 mph - N/A   Scattered Clouds
6:30 PM 51.8 °F - 30.2 °F 44% 30.00 in 10.0 mi SE 4.6 mph - N/A   Mostly Cloudy
6:50 PM 46.4 °F 43.5 °F 28.4 °F 50% 29.99 in 10.0 mi SE 5.8 mph - N/A   Scattered Clouds
7:10 PM 46.4 °F 43.5 °F 28.4 °F 50% 29.99 in 10.0 mi SSE 5.8 mph - N/A   Mostly Cloudy
7:30 PM 46.4 °F 42.4 °F 28.4 °F 50% 29.99 in 10.0 mi South 8.1 mph - N/A   Scattered Clouds
7:50 PM 44.6 °F 40.2 °F 28.4 °F 53% 29.98 in 10.0 mi South 8.1 mph - N/A   Scattered Clouds
8:10 PM 41.0 °F 35.2 °F 26.6 °F 57% 29.98 in 10.0 mi South 9.2 mph - N/A   Scattered Clouds
8:30 PM 42.8 °F 38.0 °F 28.4 °F 57% 29.97 in 10.0 mi South 8.1 mph - N/A   Mostly Cloudy
8:50 PM 42.8 °F 38.0 °F 28.4 °F 57% 29.97 in 10.0 mi SSW 8.1 mph - N/A   Mostly Cloudy
9:10 PM 39.2 °F 33.6 °F 26.6 °F 61% 29.96 in 10.0 mi SSW 8.1 mph - N/A   Scattered Clouds
9:30 PM 39.2 °F 33.0 °F 26.6 °F 61% 29.95 in 10.0 mi SSW 9.2 mph - N/A   Scattered Clouds
9:50 PM 39.2 °F 33.6 °F 26.6 °F 61% 29.95 in 10.0 mi SW 8.1 mph - N/A   Mostly Cloudy
10:10 PM 37.4 °F 31.4 °F 26.6 °F 65% 29.94 in 10.0 mi SSW 8.1 mph - N/A   Scattered Clouds
10:30 PM 37.4 °F 30.8 °F 26.6 °F 65% 29.93 in 10.0 mi SSW 9.2 mph - N/A   Partly Cloudy
10:50 PM 37.4 °F 30.8 °F 26.6 °F 65% 29.92 in 10.0 mi SSW 9.2 mph - N/A   Partly Cloudy
11:10 PM 37.4 °F 31.4 °F 26.6 °F 65% 29.91 in 10.0 mi SSW 8.1 mph - N/A   Scattered Clouds
11:30 PM 35.6 °F 28.6 °F 26.6 °F 70% 29.90 in 10.0 mi SW 9.2 mph - N/A   Scattered Clouds
11:50 PM 35.6 °F 28.6 °F 26.6 °F 70% 29.89 in 10.0 mi SW 9.2 mph - N/A   Mostly Cloudy